Tracking 30995 objects as of 5-Jul-2025
HD Live streaming from Space Station
objects crossing your sky now

FENGYUN 1B

Track FENGYUN 1B now!
10-day predictions
FENGYUN 1B is classified as:


NORAD ID: 20788
Int'l Code: 1990-081A
Perigee: 878.9 km
Apogee: 901.3 km
Inclination: 98.9 °
Period: 102.6 minutes
Semi major axis: 7261 km
RCS: 3.0595 m2 (large)
Launch date: September 3, 1990
Source: People's Republic of China (PRC)
Launch site: Taiyaun Space Center, China (TSC)
Your satellite tracking list
Your tracking list is empty




NASA's NSSDC Master Catalog

Two Line Element Set (TLE):
1 20788U 90081A   25186.57989216  .00000230  00000-0  17564-3 0  9993
2 20788  98.9302 167.3524 0015394 214.4996 145.5172 14.03129439782944
Source of the keplerian elements: AFSPC